QPF
0.06 0.05 0.03 0.02 0.01 0.01 0.00 0.00 0.00 0.00 0.00 0.00 0.00 0.00 0.00 0.00 0.00 0.00 0.01 0.01 0.01 0.01 0.02 0.02 0.03 0.04 0.07 0.09 0.09 0.11 0.14 0.15 0.16 0.18 0.19 0.17 0.16 0.15
0.13 0.11 0.08 0.06 0.04 0.02 0.01 0.01 0.00 0.00 0.00 0.00 0.00 0.00 0.00 0.00 0.00 0.00 0.00 0.01 0.01 0.02 0.02 0.04 0.05 0.05 0.07 0.08 0.11 0.14 0.16 0.17 0.17 0.16 0.15 0.13 0.11 0.10
0.19 0.19 0.15 0.12 0.10 0.06 0.04 0.02 0.01 0.01 0.00 0.00 0.00 0.00 0.01 0.01 0.01 0.00 0.00 0.00 0.01 0.02 0.03 0.05 0.06 0.07 0.08 0.09 0.12 0.14 0.15 0.15 0.14 0.13 0.12 0.10 0.08 0.07
0.18 0.24 0.26 0.22 0.16 0.12 0.09 0.05 0.02 0.01 0.01 0.01 0.01 0.01 0.01 0.02 0.01 0.01 0.00 0.00 0.01 0.03 0.04 0.06 0.08 0.08 0.08 0.07 0.07 0.08 0.09 0.10 0.10 0.09 0.08 0.07 0.06 0.05
0.12 0.19 0.27 0.31 0.28 0.21 0.15 0.12 0.08 0.04 0.02 0.01 0.01 0.01 0.01 0.01 0.01 0.01 0.01 0.01 0.01 0.02 0.04 0.06 0.08 0.08 0.07 0.07 0.05 0.04 0.03 0.04 0.04 0.04 0.04 0.04 0.04 0.04
0.07 0.12 0.19 0.28 0.35 0.34 0.26 0.19 0.15 0.10 0.05 0.03 0.02 0.01 0.02 0.02 0.02 0.01 0.01 0.01 0.01 0.01 0.02 0.04 0.05 0.06 0.06 0.05 0.04 0.02 0.02 0.02 0.02 0.02 0.01 0.01 0.01 0.01
0.03 0.06 0.11 0.17 0.26 0.35 0.36 0.29 0.23 0.16 0.09 0.05 0.03 0.02 0.02 0.02 0.02 0.01 0.01 0.01 0.02 0.02 0.01 0.02 0.02 0.02 0.03 0.03 0.03 0.02 0.01 0.01 0.01 0.01 0.01 0.00 0.00 0.00
0.02 0.03 0.05 0.10 0.16 0.23 0.30 0.34 0.31 0.24 0.16 0.09 0.05 0.03 0.03 0.02 0.01 0.01 0.01 0.01 0.02 0.03 0.02 0.02 0.01 0.01 0.01 0.01 0.01 0.01 0.01 0.00 0.00 0.00 0.00 0.00 0.00 0.00
0.03 0.03 0.02 0.04 0.09 0.15 0.20 0.25 0.28 0.25 0.19 0.13 0.10 0.06 0.05 0.03 0.02 0.01 0.01 0.01 0.01 0.01 0.02 0.03 0.02 0.01 0.01 0.00 0.00 0.00 0.00 0.00 0.00 0.00 0.00 0.00 0.00 0.00
0.04 0.03 0.02 0.03 0.04 0.08 0.15 0.18 0.20 0.19 0.16 0.11 0.09 0.09 0.09 0.07 0.04 0.02 0.02 0.02 0.03 0.02 0.02 0.04 0.04 0.02 0.01 0.00 0.00 0.00 0.00 0.00 0.00 0.00 0.00 0.00 0.00 0.00
0.04 0.03 0.02 0.02 0.02 0.03 0.08 0.13 0.15 0.14 0.13 0.13 0.10 0.09 0.08 0.07 0.05 0.03 0.03 0.04 0.06 0.05 0.02 0.02 0.03 0.02 0.01 0.01 0.00 0.00 0.00 0.00 0.00 0.00 0.00 0.00 0.00 0.00
0.05 0.04 0.01 0.01 0.01 0.01 0.04 0.08 0.11 0.12 0.10 0.09 0.09 0.07 0.05 0.04 0.04 0.04 0.04 0.04 0.05 0.06 0.04 0.02 0.02 0.02 0.01 0.01 0.00 0.00 0.00 0.00 0.00 0.00 0.00 0.00 0.00 0.00
0.03 0.03 0.02 0.01 0.00 0.00 0.02 0.04 0.08 0.10 0.10 0.09 0.08 0.08 0.06 0.06 0.06 0.07 0.07 0.06 0.05 0.04 0.03 0.02 0.02 0.02 0.02 0.01 0.01 0.00 0.00 0.00 0.00 0.00 0.00 0.00 0.00 0.00
0.03 0.02 0.02 0.01 0.00 0.00 0.01 0.03 0.05 0.08 0.12 0.11 0.10 0.08 0.07 0.06 0.08 0.10 0.10 0.11 0.09 0.06 0.04 0.02 0.02 0.02 0.02 0.01 0.01 0.00 0.00 0.00 0.00 0.00 0.00 0.00 0.00 0.00
0.03 0.02 0.02 0.00 0.00 0.00 0.01 0.02 0.05 0.07 0.10 0.11 0.09 0.08 0.06 0.05 0.07 0.11 0.14 0.14 0.13 0.11 0.08 0.05 0.03 0.03 0.03 0.03 0.02 0.01 0.00 0.00 0.00 0.00 0.00 0.00 0.00 0.00
0.01 0.01 0.00 0.00 0.00 0.01 0.02 0.04 0.05 0.08 0.09 0.11 0.10 0.09 0.09 0.08 0.08 0.08 0.11 0.12 0.13 0.11 0.07 0.05 0.04 0.03 0.03 0.02 0.01 0.01 0.00 0.00 0.00 0.00 0.00 0.00 0.00 0.00
0.02 0.03 0.02 0.02 0.02 0.02 0.03 0.06 0.09 0.12 0.13 0.12 0.11 0.10 0.10 0.09 0.09 0.07 0.06 0.06 0.06 0.07 0.05 0.03 0.02 0.02 0.02 0.02 0.01 0.00 0.00 0.00 0.00 0.00 0.00 0.00 0.00 0.00
0.02 0.04 0.04 0.04 0.04 0.04 0.06 0.11 0.15 0.17 0.18 0.16 0.14 0.12 0.09 0.08 0.08 0.07 0.05 0.04 0.04 0.04 0.04 0.02 0.02 0.02 0.01 0.01 0.00 0.00 0.00 0.00 0.00 0.00 0.00 0.00 0.00 0.00
0.02 0.04 0.05 0.04 0.04 0.05 0.09 0.15 0.20 0.22 0.23 0.20 0.17 0.14 0.10 0.08 0.08 0.07 0.05 0.04 0.04 0.03 0.03 0.02 0.02 0.01 0.01 0.01 0.00 0.00 0.00 0.00 0.00 0.00 0.00 0.00 0.00 0.00
0.02 0.04 0.05 0.05 0.04 0.06 0.12 0.20 0.26 0.29 0.30 0.26 0.22 0.17 0.11 0.09 0.08 0.07 0.05 0.04 0.03 0.02 0.02 0.02 0.01 0.01 0.01 0.01 0.00 0.00 0.00 0.00 0.00 0.00 0.00 0.00 0.00 0.00
0.02 0.04 0.05 0.05 0.06 0.09 0.15 0.23 0.31 0.34 0.33 0.30 0.27 0.21 0.14 0.10 0.09 0.07 0.06 0.04 0.03 0.02 0.01 0.01 0.01 0.00 0.00 0.00 0.00 0.00 0.00 0.00 0.00 0.00 0.00 0.00 0.00 0.00
0.03 0.05 0.06 0.08 0.11 0.14 0.19 0.27 0.34 0.38 0.37 0.32 0.28 0.22 0.16 0.11 0.08 0.06 0.05 0.03 0.02 0.01 0.01 0.01 0.01 0.00 0.00 0.00 0.00 0.00 0.00 0.00 0.00 0.00 0.00 0.00 0.00 0.00
0.05 0.05 0.08 0.12 0.16 0.20 0.24 0.28 0.35 0.41 0.36 0.28 0.25 0.20 0.15 0.11 0.08 0.05 0.04 0.03 0.02 0.01 0.01 0.01 0.00 0.00 0.00 0.00 0.00 0.00 0.00 0.00 0.00 0.00 0.00 0.00 0.00 0.00
MSLP
1008.75 1008.68 1008.61 1008.54 1008.46 1008.37 1008.29 1008.22 1008.18 1008.18 1008.25 1008.38 1008.57 1008.80 1009.06 1009.31 1009.54 1009.73 1009.87 1009.97 1010.06 1010.14 1010.25 1010.41 1010.65 1010.96 1011.36 1011.82 1012.32 1012.84 1013.36 1013.83 1014.26 1014.63 1014.93 1015.19 1015.41 1015.61
1008.59 1008.51 1008.42 1008.31 1008.17 1008.03 1007.89 1007.77 1007.71 1007.71 1007.79 1007.96 1008.21 1008.51 1008.84 1009.17 1009.47 1009.71 1009.90 1010.02 1010.12 1010.20 1010.30 1010.45 1010.67 1010.97 1011.36 1011.81 1012.30 1012.82 1013.32 1013.78 1014.19 1014.54 1014.83 1015.06 1015.26 1015.44
1008.31 1008.25 1008.16 1008.03 1007.87 1007.69 1007.51 1007.36 1007.27 1007.26 1007.36 1007.56 1007.86 1008.23 1008.64 1009.05 1009.43 1009.75 1010.00 1010.19 1010.32 1010.43 1010.55 1010.70 1010.92 1011.21 1011.58 1012.02 1012.49 1012.98 1013.46 1013.90 1014.29 1014.63 1014.90 1015.13 1015.32 1015.49
1007.86 1007.85 1007.80 1007.70 1007.55 1007.37 1007.19 1007.02 1006.92 1006.91 1007.01 1007.22 1007.55 1007.98 1008.45 1008.94 1009.40 1009.81 1010.15 1010.42 1010.62 1010.79 1010.95 1011.13 1011.36 1011.65 1012.01 1012.42 1012.87 1013.33 1013.78 1014.19 1014.56 1014.88 1015.15 1015.38 1015.58 1015.77
1007.23 1007.30 1007.33 1007.30 1007.21 1007.07 1006.92 1006.77 1006.67 1006.66 1006.76 1006.98 1007.32 1007.77 1008.28 1008.83 1009.36 1009.86 1010.29 1010.65 1010.95 1011.20 1011.42 1011.66 1011.92 1012.23 1012.58 1012.98 1013.40 1013.83 1014.24 1014.63 1014.98 1015.29 1015.56 1015.81 1016.03 1016.25
1006.43 1006.60 1006.74 1006.81 1006.82 1006.77 1006.68 1006.58 1006.51 1006.50 1006.60 1006.80 1007.13 1007.58 1008.11 1008.68 1009.27 1009.84 1010.37 1010.83 1011.23 1011.58 1011.90 1012.21 1012.53 1012.88 1013.25 1013.64 1014.04 1014.44 1014.83 1015.20 1015.53 1015.84 1016.12 1016.38 1016.64 1016.88
1005.52 1005.79 1006.05 1006.25 1006.39 1006.45 1006.46 1006.43 1006.39 1006.40 1006.48 1006.66 1006.96 1007.37 1007.89 1008.47 1009.09 1009.72 1010.32 1010.89 1011.40 1011.88 1012.31 1012.72 1013.13 1013.53 1013.93 1014.34 1014.75 1015.14 1015.51 1015.86 1016.19 1016.50 1016.79 1017.07 1017.35 1017.62
1004.55 1004.93 1005.30 1005.64 1005.91 1006.10 1006.21 1006.25 1006.26 1006.28 1006.34 1006.49 1006.74 1007.11 1007.59 1008.16 1008.79 1009.46 1010.14 1010.81 1011.44 1012.04 1012.60 1013.13 1013.64 1014.13 1014.60 1015.05 1015.47 1015.87 1016.24 1016.59 1016.91 1017.22 1017.51 1017.80 1018.10 1018.39
1003.64 1004.09 1004.57 1005.02 1005.41 1005.70 1005.90 1006.01 1006.06 1006.09 1006.13 1006.24 1006.44 1006.76 1007.19 1007.74 1008.38 1009.08 1009.83 1010.59 1011.34 1012.07 1012.76 1013.43 1014.05 1014.64 1015.18 1015.69 1016.16 1016.58 1016.97 1017.31 1017.63 1017.94 1018.23 1018.52 1018.81 1019.10
1002.86 1003.37 1003.91 1004.43 1004.90 1005.27 1005.52 1005.68 1005.75 1005.78 1005.81 1005.88 1006.04 1006.32 1006.72 1007.25 1007.89 1008.63 1009.44 1010.28 1011.14 1011.99 1012.81 1013.59 1014.33 1015.02 1015.65 1016.23 1016.74 1017.20 1017.60 1017.96 1018.28 1018.58 1018.86 1019.13 1019.40 1019.66
1002.29 1002.81 1003.37 1003.91 1004.40 1004.79 1005.07 1005.24 1005.33 1005.35 1005.37 1005.42 1005.56 1005.81 1006.20 1006.73 1007.39 1008.17 1009.03 1009.95 1010.89 1011.84 1012.76 1013.65 1014.48 1015.26 1015.96 1016.60 1017.16 1017.65 1018.08 1018.45 1018.77 1019.05 1019.31 1019.56 1019.79 1020.02
1001.95 1002.44 1002.96 1003.47 1003.92 1004.29 1004.56 1004.71 1004.79 1004.82 1004.83 1004.89 1005.04 1005.30 1005.71 1006.26 1006.95 1007.77 1008.68 1009.65 1010.66 1011.67 1012.66 1013.61 1014.50 1015.33 1016.08 1016.76 1017.36 1017.87 1018.32 1018.70 1019.02 1019.29 1019.53 1019.74 1019.94 1020.14
1001.81 1002.22 1002.66 1003.09 1003.47 1003.77 1003.98 1004.11 1004.17 1004.20 1004.24 1004.33 1004.52 1004.83 1005.28 1005.88 1006.62 1007.48 1008.43 1009.43 1010.47 1011.50 1012.51 1013.48 1014.38 1015.22 1015.99 1016.67 1017.28 1017.81 1018.27 1018.65 1018.98 1019.25 1019.47 1019.67 1019.85 1020.01
1001.79 1002.10 1002.43 1002.74 1003.01 1003.22 1003.36 1003.45 1003.51 1003.55 1003.63 1003.78 1004.04 1004.42 1004.95 1005.61 1006.41 1007.31 1008.28 1009.29 1010.32 1011.33 1012.31 1013.24 1014.11 1014.92 1015.66 1016.32 1016.92 1017.45 1017.91 1018.30 1018.64 1018.92 1019.15 1019.35 1019.52 1019.68
1001.79 1001.99 1002.18 1002.36 1002.52 1002.63 1002.71 1002.77 1002.82 1002.90 1003.04 1003.27 1003.61 1004.09 1004.71 1005.45 1006.29 1007.22 1008.20 1009.19 1010.18 1011.13 1012.04 1012.89 1013.69 1014.42 1015.10 1015.73 1016.30 1016.82 1017.28 1017.69 1018.04 1018.35 1018.61 1018.83 1019.03 1019.21
1001.71 1001.79 1001.86 1001.92 1001.97 1002.00 1002.03 1002.07 1002.14 1002.27 1002.48 1002.80 1003.25 1003.82 1004.52 1005.32 1006.21 1007.15 1008.11 1009.06 1009.98 1010.85 1011.66 1012.42 1013.11 1013.76 1014.36 1014.93 1015.47 1015.98 1016.45 1016.89 1017.28 1017.63 1017.93 1018.20 1018.45 1018.68
1001.48 1001.45 1001.42 1001.39 1001.36 1001.34 1001.35 1001.40 1001.50 1001.69 1001.97 1002.38 1002.91 1003.57 1004.33 1005.18 1006.09 1007.02 1007.95 1008.84 1009.68 1010.46 1011.17 1011.81 1012.41 1012.97 1013.50 1014.02 1014.54 1015.04 1015.53 1016.00 1016.44 1016.85 1017.22 1017.56 1017.87 1018.17
1001.05 1000.95 1000.86 1000.78 1000.72 1000.69 1000.70 1000.77 1000.92 1001.17 1001.52 1001.99 1002.58 1003.29 1004.08 1004.95 1005.85 1006.76 1007.64 1008.48 1009.24 1009.93 1010.55 1011.11 1011.63 1012.12 1012.60 1013.09 1013.60 1014.11 1014.63 1015.15 1015.65 1016.12 1016.57 1016.98 1017.36 1017.72
1000.47 1000.34 1000.23 1000.14 1000.09 1000.08 1000.13 1000.24 1000.44 1000.73 1001.12 1001.63 1002.24 1002.96 1003.75 1004.60 1005.47 1006.34 1007.18 1007.95 1008.66 1009.29 1009.85 1010.36 1010.83 1011.29 1011.75 1012.24 1012.75 1013.29 1013.84 1014.41 1014.97 1015.51 1016.02 1016.49 1016.93 1017.34
999.81 999.68 999.59 999.54 999.53 999.58 999.68 999.84 1000.08 1000.39 1000.80 1001.30 1001.90 1002.58 1003.34 1004.14 1004.96 1005.78 1006.57 1007.30 1007.97 1008.58 1009.12 1009.62 1010.09 1010.55 1011.02 1011.52 1012.06 1012.62 1013.22 1013.83 1014.43 1015.02 1015.57 1016.09 1016.57 1017.01
999.17 999.08 999.04 999.06 999.12 999.23 999.39 999.59 999.85 1000.17 1000.56 1001.02 1001.56 1002.18 1002.87 1003.60 1004.37 1005.13 1005.89 1006.60 1007.27 1007.88 1008.44 1008.96 1009.46 1009.95 1010.45 1010.98 1011.54 1012.14 1012.76 1013.39 1014.02 1014.63 1015.20 1015.73 1016.21 1016.65
998.64 998.61 998.65 998.74 998.88 999.06 999.27 999.51 999.77 1000.07 1000.41 1000.81 1001.28 1001.81 1002.41 1003.07 1003.77 1004.49 1005.22 1005.94 1006.62 1007.26 1007.87 1008.44 1008.98 1009.52 1010.06 1010.61 1011.19 1011.79 1012.41 1013.04 1013.66 1014.26 1014.83 1015.34 1015.81 1016.22
998.29 998.33 998.45 998.62 998.84 999.08 999.32 999.57 999.82 1000.08 1000.37 1000.69 1001.06 1001.50 1002.02 1002.60 1003.25 1003.94 1004.66 1005.39 1006.11 1006.80 1007.45 1008.08 1008.67 1009.24 1009.80 1010.37 1010.94 1011.52 1012.12 1012.71 1013.30 1013.87 1014.39 1014.87 1015.29 1015.66
Thickness
5667 5672 5677 5683 5688 5693 5697 5700 5700 5703 5710 5713 5718 5719 5722 5722 5721 5724 5726 5724 5724 5725 5724 5722 5720 5719 5717 5716 5715 5713 5711 5710 5709 5708 5707 5705 5705 5706
5653 5660 5666 5673 5679 5684 5689 5693 5696 5698 5704 5711 5711 5715 5715 5718 5715 5717 5718 5718 5718 5719 5718 5717 5716 5714 5712 5711 5709 5707 5705 5703 5702 5701 5700 5699 5699 5699
5639 5646 5653 5660 5666 5673 5679 5684 5688 5692 5693 5702 5707 5708 5707 5709 5710 5711 5713 5713 5712 5710 5711 5710 5709 5707 5705 5703 5701 5699 5697 5695 5694 5693 5692 5692 5692 5694
5625 5631 5638 5646 5653 5660 5667 5674 5679 5684 5687 5690 5696 5700 5700 5702 5702 5703 5705 5704 5703 5700 5701 5700 5699 5698 5695 5694 5692 5690 5688 5686 5685 5684 5684 5684 5684 5685
5613 5618 5625 5631 5638 5646 5654 5662 5669 5675 5680 5684 5688 5693 5695 5695 5693 5693 5693 5693 5692 5691 5690 5689 5688 5686 5684 5682 5681 5680 5678 5676 5675 5674 5674 5674 5674 5675
5599 5605 5612 5618 5624 5631 5640 5648 5657 5664 5670 5676 5680 5684 5687 5688 5687 5684 5682 5683 5682 5681 5679 5678 5676 5674 5672 5671 5670 5668 5667 5666 5665 5664 5663 5662 5662 5663
5585 5591 5600 5606 5611 5617 5625 5634 5642 5650 5659 5666 5672 5677 5680 5680 5680 5679 5676 5673 5671 5672 5671 5669 5667 5665 5662 5659 5658 5657 5657 5656 5655 5654 5652 5652 5652 5653
5571 5579 5586 5592 5597 5603 5612 5621 5627 5636 5647 5655 5664 5671 5675 5678 5678 5675 5669 5668 5664 5661 5663 5659 5659 5657 5654 5650 5647 5647 5646 5645 5644 5643 5643 5642 5642 5643
5557 5564 5574 5584 5587 5594 5600 5607 5616 5623 5632 5643 5652 5662 5669 5673 5673 5669 5667 5667 5663 5656 5655 5649 5648 5646 5642 5637 5636 5637 5636 5635 5634 5633 5633 5633 5634 5634
5545 5551 5558 5568 5577 5583 5591 5600 5607 5615 5623 5632 5643 5652 5660 5666 5667 5667 5664 5656 5651 5648 5648 5641 5637 5635 5632 5627 5625 5626 5626 5626 5626 5625 5625 5625 5625 5625
5537 5543 5549 5557 5564 5570 5581 5591 5600 5607 5615 5623 5631 5639 5647 5655 5659 5658 5653 5649 5642 5637 5638 5635 5628 5625 5622 5618 5615 5616 5616 5617 5617 5616 5617 5617 5618 5618
5530 5536 5540 5548 5553 5558 5569 5580 5589 5600 5608 5615 5622 5629 5637 5644 5649 5653 5653 5648 5641 5632 5631 5630 5625 5623 5614 5610 5608 5608 5607 5607 5607 5608 5609 5610 5611 5615
5527 5533 5539 5539 5543 5549 5558 5571 5582 5591 5601 5609 5618 5625 5631 5637 5642 5647 5650 5650 5646 5641 5634 5631 5625 5624 5620 5610 5605 5604 5604 5602 5601 5600 5601 5603 5606 5610
5523 5531 5537 5535 5538 5542 5550 5562 5570 5578 5592 5603 5611 5619 5626 5632 5636 5640 5642 5643 5644 5644 5637 5634 5629 5625 5619 5612 5607 5603 5602 5601 5601 5600 5599 5598 5600 5602
5519 5524 5527 5529 5533 5539 5544 5553 5561 5574 5587 5597 5607 5616 5623 5627 5628 5629 5630 5630 5630 5630 5629 5629 5627 5622 5619 5615 5609 5605 5603 5601 5601 5600 5598 5597 5597 5597
5515 5520 5521 5525 5531 5540 5547 5552 5561 5574 5584 5594 5603 5611 5615 5618 5621 5624 5623 5621 5619 5617 5617 5619 5620 5619 5617 5614 5610 5605 5603 5602 5600 5598 5597 5597 5596 5597
5520 5524 5529 5534 5539 5545 5552 5558 5565 5572 5579 5588 5597 5603 5609 5613 5615 5617 5618 5618 5618 5615 5612 5612 5613 5613 5615 5613 5608 5604 5602 5601 5599 5598 5595 5596 5596 5596
5516 5525 5531 5537 5543 5549 5554 5559 5564 5570 5579 5586 5593 5599 5605 5609 5611 5612 5613 5616 5617 5615 5614 5613 5612 5610 5608 5606 5606 5604 5603 5601 5599 5595 5595 5596 5596 5597
5515 5527 5533 5539 5545 5550 5555 5559 5564 5570 5576 5583 5590 5596 5602 5605 5607 5609 5611 5613 5615 5615 5615 5613 5612 5611 5609 5605 5601 5603 5603 5601 5598 5595 5595 5597 5598 5599
5520 5529 5535 5541 5546 5550 5554 5557 5562 5566 5572 5580 5586 5593 5598 5603 5605 5607 5610 5614 5615 5615 5613 5612 5611 5612 5612 5611 5607 5602 5600 5601 5599 5597 5597 5597 5599 5594
5525 5530 5536 5541 5545 5549 5551 5554 5558 5563 5569 5577 5583 5590 5596 5600 5603 5606 5609 5609 5613 5613 5612 5610 5611 5612 5614 5612 5607 5602 5600 5596 5598 5598 5598 5597 5596 5594
5528 5532 5536 5540 5543 5545 5548 5550 5554 5560 5566 5574 5582 5588 5594 5598 5602 5605 5608 5609 5610 5610 5610 5610 5607 5608 5609 5607 5606 5603 5599 5594 5591 5592 5593 5594 5598 5595
5528 5532 5535 5537 5539 5541 5544 5547 5552 5558 5566 5574 5581 5587 5594 5598 5601 5603 5605 5607 5607 5608 5607 5606 5604 5604 5606 5606 5606 5604 5598 5593 5592 5589 5589 5589 5587 5585